SCP
0 1 1 1 1 1 1 1 1 0 1 1 1 1 1 1 1 1 1 1 0 0 0 0 0 0 0 0 0 0 0 0 0 0 0 0 0 0 0 0 0 0 0
1 1 1 1 1 1 1 1 1 0 1 1 1 1 1 1 1 1 1 1 0 0 0 0 0 0 0 0 0 0 0 0 0 0 0 0 0 0 0 0 0 0 0
1 1 1 1 1 1 1 1 1 1 1 1 1 1 1 1 1 1 1 1 0 0 0 0 0 0 0 0 0 0 0 0 0 0 0 0 0 0 0 0 0 0 0
0 1 1 1 2 2 2 1 1 1 1 1 1 1 1 1 1 1 1 0 0 0 0 0 0 0 0 0 0 0 0 0 0 0 0 0 0 0 0 0 0 0 0
0 0 1 1 2 2 2 1 1 1 1 1 1 1 1 1 1 1 0 0 0 0 0 0 0 0 0 0 0 0 0 0 0 0 0 0 0 0 0 0 0 0 0
0 0 0 1 1 1 1 1 1 1 1 1 1 1 1 1 1 0 0 0 0 0 0 0 0 0 0 0 0 0 0 0 0 0 0 0 0 0 0 0 0 0 0
0 0 0 0 1 1 1 1 1 1 1 1 1 1 1 1 0 0 0 0 0 0 0 0 0 0 0 0 0 0 0 0 0 0 0 0 0 0 0 0 0 0 0
0 0 0 0 0 0 1 1 1 1 1 1 1 1 1 1 0 0 0 0 0 0 0 0 1 0 0 0 0 0 0 0 0 0 0 0 0 0 0 0 0 0 0
0 0 0 0 0 0 0 1 1 1 1 1 1 1 1 1 1 0 0 0 0 0 0 1 1 1 0 0 0 0 0 0 0 0 0 0 0 0 0 0 0 0 0
0 0 0 0 0 0 0 0 0 0 1 1 1 1 1 0 0 0 0 0 0 0 1 1 1 1 1 1 0 0 0 0 0 0 0 0 0 0 0 0 0 0 0
0 0 0 0 0 0 0 0 0 0 0 1 1 1 0 0 0 0 0 0 0 0 0 1 1 1 1 1 0 0 0 0 0 0 0 0 0 0 0 0 0 0 0
0 0 0 0 0 0 0 0 0 0 0 1 1 0 0 0 0 0 0 0 0 0 0 1 1 1 1 0 0 0 0 0 0 0 0 0 0 0 0 0 0 0 0
0 0 0 0 0 0 0 0 0 0 0 1 1 0 0 0 0 0 0 0 0 0 0 0 1 1 1 0 0 0 0 0 0 0 0 0 0 0 0 0 0 0 0
0 0 0 0 0 0 0 0 0 0 0 1 1 0 0 0 0 0 0 0 0 0 0 0 0 1 1 0 0 0 0 0 0 0 0 0 0 0 0 0 0 0 0
0 0 0 0 0 0 0 0 0 0 0 0 0 0 0 0 0 0 0 0 0 0 0 0 0 0 0 0 0 0 0 0 0 0 0 0 0 0 0 0 0 0 0
0 0 0 0 0 0 0 0 0 0 0 0 0 0 0 0 0 0 0 0 0 0 0 0 0 0 0 0 0 0 0 0 0 0 0 0 0 0 0 0 0 0 0
0 0 0 0 0 0 0 0 0 0 0 0 0 0 0 0 0 0 0 0 0 0 0 0 0 0 0 0 0 0 0 0 0 0 0 0 0 0 0 0 0 0 0
0 0 0 0 0 0 0 0 0 0 0 0 0 0 0 0 0 0 0 0 0 0 0 0 0 0 0 0 0 0 0 0 0 0 0 0 0 0 0 0 0 0 0
0 0 0 0 0 0 0 0 0 0 0 0 0 0 0 0 0 0 0 0 0 0 0 0 0 0 0 0 0 0 0 0 0 0 0 0 0 0 0 0 0 0 0
0 0 0 0 0 0 0 0 0 0 0 0 0 0 0 0 0 0 0 0 0 0 0 0 0 0 0 0 0 0 0 0 0 0 0 0 0 0 0 0 0 0 0
0 0 0 0 0 0 0 0 0 0 0 0 0 0 0 0 0 0 0 0 0 0 0 0 0 0 0 0 0 0 0 0 0 0 0 0 0 0 0 0 0 0 0
0 0 0 0 0 0 0 0 0 0 0 0 0 0 0 0 0 0 0 0 0 0 0 0 0 0 0 0 0 0 0 0 0 0 0 0 0 0 0 0 0 0 0
0 0 0 0 0 0 0 0 0 0 0 0 0 0 0 0 0 0 0 0 0 0 0 0 0 0 0 0 0 0 0 0 0 0 0 0 0 0 0 0 0 0 0
0 0 0 0 0 0 0 0 0 0 0 0 0 0 0 0 0 0 0 0 0 0 0 0 0 0 0 0 1 0 0 0 0 0 0 0 0 0 0 0 0 0 0
0 0 0 0 0 0 0 0 0 0 0 0 0 0 0 1 1 1 1 0 0 0 0 0 0 0 0 0 1 0 0 0 0 0 0 0 0 0 0 0 0 0 0
0 0 0 0 0 0 0 0 0 0 0 0 0 0 0 1 1 1 1 1 1 0 0 0 0 0 0 0 1 0 0 0 0 0 0 0 0 0 0 0 0 0 0
Wind_Speed
2 0 3 5 8 9 10 10 10 10 10 11 11 11 11 11 11 11 11 11 10 10 10 11 11 11 11 11 11 11 10 10 10 9 9 9 9 9 9 9 8 5 8
1 1 4 5 7 8 9 10 9 9 9 10 10 11 10 10 10 10 10 10 10 10 10 10 10 10 10 10 9 9 9 9 9 8 8 7 7 7 8 7 7 4 7
2 3 4 6 7 8 9 9 9 9 9 10 10 10 10 10 10 10 10 10 10 10 10 9 9 9 9 9 8 8 8 8 8 7 6 3 3 5 6 6 6 6 6
3 3 4 7 8 8 9 9 9 8 9 9 9 9 9 9 10 10 10 9 9 9 9 8 9 9 8 7 7 7 8 8 7 6 3 2 2 3 5 5 5 5 5
4 3 5 7 8 9 9 8 8 8 8 8 8 8 8 8 8 8 9 9 9 9 9 8 8 8 7 7 7 7 7 7 7 5 3 2 2 2 4 5 5 5 5
5 4 4 7 8 8 8 8 8 7 7 7 7 7 7 7 7 8 8 8 8 8 8 8 7 7 6 6 6 7 7 7 6 2 2 2 1 2 4 4 4 4 4
5 5 5 7 7 7 8 8 7 7 7 6 7 7 7 7 7 7 7 7 7 7 7 6 6 5 5 5 5 6 7 7 4 2 1 1 2 2 2 2 3 3 3
5 5 5 7 7 7 7 7 7 6 6 5 6 6 6 7 7 7 6 6 6 6 6 6 5 4 4 4 5 6 7 7 4 3 1 1 2 2 1 1 2 2 3
6 5 5 4 5 6 6 6 6 6 5 5 5 5 5 6 6 6 6 5 5 4 4 4 4 4 4 4 5 6 6 7 3 2 2 1 3 2 2 2 3 3 3
6 5 5 4 4 4 3 5 5 5 5 5 5 5 5 5 5 5 5 4 4 4 4 4 3 3 3 4 5 6 6 5 3 2 1 2 3 3 3 3 3 4 4
7 6 5 5 4 3 3 4 3 3 4 4 3 4 4 2 2 3 3 3 3 3 3 3 2 2 3 4 5 5 5 2 3 2 2 3 4 3 3 3 4 4 4
6 5 5 5 4 3 3 2 2 2 2 2 2 2 2 2 1 2 3 3 2 2 2 2 2 2 2 2 3 4 2 3 2 2 2 4 5 4 4 5 5 4 4
3 4 4 4 4 4 2 2 1 1 1 1 2 2 1 1 1 1 1 1 1 1 1 2 2 1 1 1 2 2 2 2 1 2 3 5 5 5 5 5 4 4 4
4 4 4 4 4 4 3 2 1 1 1 1 1 1 1 1 1 0 0 0 0 1 1 1 1 2 2 2 2 2 2 2 2 2 2 4 5 6 6 5 5 5 5
5 5 4 4 4 3 3 2 3 2 1 1 1 0 0 1 0 0 0 0 0 1 1 1 1 2 2 2 2 2 2 2 2 1 2 4 4 5 6 5 5 6 6
6 5 5 4 4 3 3 2 2 2 1 1 1 1 0 0 1 0 0 0 1 1 1 1 2 2 2 2 2 3 2 2 2 2 2 2 4 4 5 5 6 7 7
5 5 5 4 5 4 4 3 2 1 2 2 2 2 1 1 0 1 0 1 1 1 1 1 2 2 2 2 3 3 2 2 2 2 2 1 2 3 4 6 7 7 8
5 6 6 5 5 4 4 3 2 2 1 1 1 1 2 2 1 0 0 1 2 1 1 1 1 2 2 2 3 3 2 2 2 2 1 1 1 1 3 6 7 8 8
5 6 6 6 5 4 3 2 2 2 2 2 2 2 2 2 2 1 1 1 1 1 1 1 1 1 2 3 3 2 2 1 1 1 1 1 1 1 2 4 6 7 7
5 6 6 6 6 5 3 2 2 2 2 3 3 3 3 3 3 1 1 2 1 1 1 1 2 2 2 2 3 3 2 2 1 1 1 1 1 2 2 2 3 4 6
6 6 6 7 7 5 3 3 2 2 3 3 3 4 4 3 3 2 2 2 2 1 2 2 1 2 2 2 1 2 2 2 2 1 1 1 1 2 2 2 2 2 2
5 5 6 6 6 6 4 2 2 2 2 2 3 4 4 4 3 3 2 2 2 2 2 2 1 1 1 1 0 1 3 3 2 2 1 1 2 2 2 3 2 2 2
4 4 4 5 5 5 5 3 3 2 2 3 4 4 4 4 4 3 3 3 3 2 2 3 2 2 2 1 1 1 1 3 3 2 2 1 1 2 2 2 2 3 3
3 3 4 4 4 5 4 4 4 3 3 3 3 3 4 4 4 4 3 3 2 2 2 3 2 2 2 2 2 2 2 2 2 3 3 1 2 2 3 3 2 2 2
2 2 3 3 4 4 4 4 3 3 2 3 3 4 4 3 4 4 4 3 3 2 3 3 3 2 2 2 2 2 2 2 2 3 5 4 4 3 2 2 2 2 2
2 2 3 3 4 4 4 3 3 3 4 4 5 4 4 3 3 4 4 4 4 3 3 3 3 3 2 2 2 2 2 2 2 3 4 4 5 4 3 2 2 2 2
Wind_Direction
315 235 124 111 108 106 106 103 99 97 95 94 92 90 89 87 84 84 83 81 80 81 84 82 80 79 77 75 73 70 66 64 61 60 59 60 64 67 66 64 57 50 61
215 132 110 103 105 105 104 101 100 98 97 95 93 92 91 89 87 86 84 83 80 81 84 83 81 81 80 76 71 67 64 60 57 56 55 51 55 65 65 64 62 61 61
86 99 103 94 97 101 102 101 100 96 95 94 92 90 90 89 89 86 82 82 83 82 82 82 85 84 80 75 68 61 56 51 52 49 46 34 37 60 62 62 61 60 60
97 107 106 94 96 98 100 101 100 97 95 94 93 91 88 86 85 85 81 77 79 81 82 83 86 83 76 68 61 54 48 41 43 42 37 20 9 53 60 64 60 55 52
78 83 100 96 97 97 98 97 97 96 96 96 95 93 90 88 86 86 86 80 76 78 80 83 86 80 71 62 53 45 36 35 39 45 39 22 1 55 63 64 60 51 44
65 63 87 96 98 99 97 94 93 97 98 97 97 96 93 92 90 88 89 85 79 77 80 82 86 82 71 58 46 39 31 29 37 41 32 15 354 58 70 66 56 46 37
58 54 68 80 91 97 97 93 91 96 95 95 97 98 98 95 93 92 90 88 83 79 76 79 83 80 68 52 37 29 25 23 36 29 36 9 333 34 60 58 50 36 22
65 55 61 64 68 78 87 89 88 87 86 86 93 97 98 97 94 88 85 85 81 78 75 74 75 69 58 37 22 17 16 18 24 15 5 357 338 353 44 31 17 2 351
59 53 45 52 59 66 77 81 84 82 76 74 79 83 86 87 88 82 80 81 78 73 71 71 67 56 41 20 11 8 5 7 14 353 338 332 324 331 357 351 347 342 337
47 47 44 40 42 45 61 74 78 77 71 68 70 73 79 80 79 79 76 76 75 67 63 64 59 46 28 14 6 3 358 359 356 345 326 310 314 318 328 328 329 331 331
34 30 32 31 31 33 45 58 65 70 66 67 64 69 81 78 77 75 66 66 63 56 56 48 34 21 18 3 358 354 353 350 341 329 305 303 298 304 314 315 312 315 317
21 17 23 25 21 22 33 46 44 51 59 63 63 68 67 80 74 73 62 59 55 51 38 19 3 3 9 348 345 347 341 330 335 312 304 301 295 297 305 306 305 306 311
22 22 19 19 24 28 22 29 37 37 39 45 58 62 53 61 60 52 50 17 8 30 5 341 342 343 342 330 323 320 318 319 316 307 308 308 305 302 307 307 302 304 311
27 21 18 18 26 27 28 24 26 44 41 32 28 61 77 59 32 44 48 351 357 348 340 336 322 313 308 298 294 301 304 304 306 307 308 309 308 309 315 320 315 312 312
25 17 14 17 22 20 28 24 29 27 25 357 5 352 89 111 32 325 227 299 306 322 314 303 301 303 298 297 299 299 300 302 303 315 322 320 319 318 319 325 332 326 319
17 9 10 20 20 24 34 29 20 17 24 17 7 359 339 204 190 200 249 231 269 276 268 264 278 282 280 290 294 290 286 287 295 306 305 323 324 320 319 323 326 330 327
14 10 9 15 22 26 22 14 22 23 37 36 13 4 6 354 269 206 228 249 252 256 264 278 288 282 294 297 290 288 281 280 291 299 301 312 319 327 326 324 324 322 321
18 13 11 14 17 19 17 3 3 12 33 41 11 6 5 2 359 345 305 288 276 246 252 276 296 293 295 294 288 285 282 283 298 310 326 345 343 355 338 334 329 323 321
19 15 14 13 9 3 2 3 0 4 18 19 14 7 360 1 2 352 319 303 304 282 272 284 284 277 289 295 284 280 280 268 278 326 342 349 347 353 341 334 328 320 318
21 21 18 11 6 357 355 359 3 15 19 16 14 6 3 0 358 353 340 327 324 322 305 301 282 280 277 291 290 292 275 268 260 275 281 323 335 336 327 323 318 317 318
21 19 18 15 6 1 356 354 350 352 1 8 7 2 359 1 1 359 335 329 321 311 295 283 274 278 303 333 317 313 300 274 255 259 255 298 326 330 326 325 326 327 319
16 12 16 13 8 3 356 347 338 339 349 355 357 2 358 1 1 358 348 331 325 305 318 309 303 273 298 351 303 299 312 316 304 284 274 281 299 319 321 324 324 322 317
9 3 4 2 7 0 0 6 7 7 352 1 354 351 346 353 358 355 347 333 325 314 307 300 264 235 256 257 205 181 232 268 307 304 295 296 303 302 302 311 321 318 321
341 347 356 358 6 2 6 24 26 15 354 337 335 332 338 350 350 347 343 336 331 330 316 312 293 254 236 251 254 238 235 226 254 298 304 302 310 295 292 304 308 313 322
333 344 349 358 4 5 8 17 21 6 338 332 335 339 341 346 344 343 341 332 321 316 312 314 314 283 249 242 247 260 261 264 242 251 280 304 311 289 288 286 289 303 322
353 354 351 1 358 0 5 10 11 352 343 346 341 336 334 337 342 347 337 330 321 313 307 301 303 291 267 259 258 244 242 243 260 260 265 283 292 293 294 284 287 298 315